Flag for U.S.A. Weather past 2 weeks in Urbana, Illinois, U.S.A.

Now
79 °F

Sunny.


Feels Like: 80 °F
Forecast: 58 / 79 °F
Wind: 12 mph from West

Location: University Of Illinois-Willard Airport

Current Time: Jul 30, 2014 at 5:13:02 PM

Latest Report: Jul 30, 2014 at 4:53 PM


Visibility: 10 mi

Pressure: 30.03 "Hg

Humidity: 54%

Dew point: 61 °F

Location of UrbanaLocation

Historic Weather in Urbana — Graph

°F

Urbana temperature yesterday

Maximum temperature yesterday: 76 °F (at 1:53 PM)
Minimum temperature yesterday: 53 °F (at 3:53 AM)
Average temperature yesterday: 65 °F

Past Weeks' High & Low Weather Summary

 TemperatureHumidityPressure
High85 °F (Jul 26, 1:53 PM)100% (Jul 26, 6:53 PM)30.17 "Hg (Jul 26, 6:53 PM)
Low52 °F (Jul 16, 3:53 AM)48% (Jul 16, 5:53 PM)29.77 "Hg (Jul 27, 4:53 AM)
Average68 °F77%30.03 "Hg
* Reported Jul 15 3:53 PM — Jul 30 3:53 PM, Urbana, Weather by CustomWeather, © 2014

Note: Actual official high and low records may vary slightly from our data, if they occured in-between our weather recording intervals... More about our weather records

Advertising

Urbana weather history for previous 24 hours

 ConditionsComfort  
Time TempWeatherWind HumidityBarometerVisibility
3:53 PM
Jul 30
79 °FScattered clouds.12 mph52%30.04 "Hg10 mi
2:53 PM79 °FScattered clouds.13 mphN/A30.05 "Hg10 mi
1:53 PM79 °FScattered clouds.9 mph54%30.05 "Hg10 mi
12:53 PM77 °FScattered clouds.14 mph58%30.06 "Hg10 mi
11:53 AM75 °FPassing clouds.9 mph69%30.07 "Hg10 mi
10:53 AM73 °FSunny.7 mph74%30.08 "Hg10 mi
9:53 AM71 °FSunny.8 mph76%30.08 "Hg10 mi
8:53 AM66 °FScattered clouds.8 mph87%30.08 "Hg10 mi
7:53 AM63 °FSunny.6 mph90%30.07 "Hg10 mi
6:53 AM58 °FSunny.6 mph97%30.05 "Hg10 mi
5:53 AM56 °FClear.6 mph93%30.05 "Hg10 mi
4:53 AM56 °FPassing clouds.3 mph97%30.04 "Hg10 mi
3:53 AM57 °FClear.5 mph93%30.04 "Hg10 mi
2:53 AM58 °FClear.7 mph93%30.04 "Hg10 mi
1:53 AM59 °FClear.6 mph90%30.05 "Hg10 mi
12:53 AM59 °FClear.7 mph93%30.05 "Hg10 mi
11:53 PM
Jul 29
60 °FClear.6 mph90%30.06 "Hg10 mi
10:53 PM61 °FClear.7 mph90%30.05 "Hg10 mi
9:53 PM61 °FClear.5 mph90%30.05 "Hg10 mi
8:53 PM63 °FSunny.7 mph87%30.04 "Hg10 mi
7:53 PM67 °FSunny.7 mph81%30.04 "Hg10 mi
6:53 PM73 °FSunny.10 mph62%30.04 "Hg10 mi
5:53 PM75 °FPassing clouds.13 mph55%30.05 "Hg10 mi
Weather by CustomWeather, © 2014

See weather overviewHow to use our weather pages